Location: Clatteringshaws Loch
(55.0508°N, 4.2860°W)
Time: 12:36:55
(UTC+01:00)

Daily predictions for brighter satellites

Satellite Brightness Start Highest point End
(mag) Time Altitude Azimuth Time Altitude Azimuth Time Altitude Azimuth
Cosmos 1238 Rocket 3.2 22:11:53 10° NNW 22:14:52 47° W 22:18:13 10° S
NOSS 3-1 (A) 4.3 22:09:56 10° NW 22:16:55 62° NNE 22:24:47 10° ESE
CZ-4 SHROUD 3.9 22:14:35 10° S 22:17:37 51° WSW 22:20:40 10° NNW
NOSS 2-2 (C) 3.8 22:15:14 10° SW 22:19:38 86° SE 22:25:10 10° NE
OPS 6432 4.1 22:17:42 10° SW 22:20:52 82° SE 22:24:05 10° NE
Cosmos 2056 Rocket 4.1 22:16:31 10° SW 22:21:37 62° WNW 22:26:43 10° NNE
Terra 2.4 22:17:21 10° SE 22:21:54 47° ENE 22:26:28 10° N
Cosmos 2297 4.5 22:18:07 10° SSE 22:23:07 32° ESE 22:28:11 10° NE
PSLV R/B 4.3 22:20:20 10° S 22:23:08 39° W 22:25:59 10° NNW
IGS 5A 4.2 22:21:35 10° SE 22:25:30 41° ENE 22:29:27 10° N
Cosmos 1184 Rocket 2.8 22:22:10 10° S 22:25:30 77° ESE 22:28:53 10° NNE
SPOT 5 4.0 22:21:02 10° S 22:26:11 50° W 22:31:26 10° NNW
Cosmos 1812 3.5 22:23:19 10° N 22:26:59 38° ENE 22:30:37 10° SE
Gbstr 26 Del rocket 3.6 22:22:35 10° W 22:27:53 52° SSW 22:32:12 10° ESE
Cosmos 2218 Rocket 4.3 22:21:52 10° SSE 22:28:01 52° E 22:34:12 10° NNE
Cosmos 1741 Rocket 4.4 22:22:57 10° NNW 22:28:09 63° WSW 22:33:18 10° S
SL-08 RB Rocket 3.8 22:23:45 10° SSE 22:28:22 88° ENE 22:33:05 10° NNW
NOAA 11 4.4 22:26:15 10° SSE 22:31:45 80° WSW 22:37:19 10° NNW
Spot 4 4.5 22:27:16 10° SE 22:31:54 46° ENE 22:36:32 10° N
Cosmos 1727 Rocket 4.1 22:29:03 10° N 22:35:15 71° ENE 22:41:25 10° SSE
Cosmos 1862 4.0 22:32:29 10° SSW 22:36:32 60° WNW 22:40:36 10° N
ATLAS 2AS CENTAUR R/B 3.9 22:29:50 10° WNW 22:37:49 53° NNE 22:45:40 10° E
NOSS 2-2 (E) 4.2 22:33:25 10° WSW 22:37:58 74° NW 22:43:46 10° NE
Meteor 2-13 Rocket 4.5 22:31:56 10° S 22:38:05 80° E 22:44:17 10° NNE
SAR-Lupe-2 4.4 22:37:14 11° SE 22:40:28 38° ENE 22:43:50 10° N
Okean 2 Rocket 3.1 22:36:23 10° S 22:40:49 90° WNW 22:45:15 10° NNE
ISS -1.8 22:38:53 10° SSW 22:41:09 18° SSE 22:43:25 10° ESE
ASTEX 1 4.4 22:38:17 10° NNE 22:42:39 30° E 22:46:46 11° SE
NOSS 3-1 (C) 4.0 22:40:18 10° NW 22:47:29 83° NE 22:55:33 10° SE
Cosmos 2341 Rocket 4.4 22:44:44 10° SSW 22:51:01 69° WNW 22:57:16 10° N
Cosmos 1782 Rocket 4.2 22:50:40 10° SSW 22:55:05 59° WNW 22:59:33 10° N
APEX 4.0 22:52:37 10° SSW 22:56:51 55° ESE 23:02:24 10° NE
Cosmos 2369 Rocket 4.2 22:56:56 10° E 22:57:27 10° E 22:57:59 10° E
Intercosmos 25 3.2 22:55:36 10° SSW 22:58:52 68° WNW 23:02:08 10° N
USA 234 4.2 22:54:54 10° ENE 23:00:00 24° SE 23:05:04 10° S
Cosmos 1339 Rocket 4.5 22:53:52 10° N 23:00:02 85° E 23:06:06 11° SSE
CZ-4C R/B 3.7 22:56:30 10° S 23:00:25 68° WSW 23:04:39 10° NNW
DELTA 2 DEB (DPAF) 4.5 22:58:42 10° S 23:03:09 65° WSW 23:07:37 10° NNW
NOSS 5 (C) 4.1 23:00:10 10° SW 23:03:18 78° SE 23:06:33 10° NE
SL-8 Rocket 4.1 22:59:17 10° SSW 23:05:35 83° WNW 23:11:52 10° N
Cosmos 1420 Rocket 4.0 23:01:03 10° SSW 23:06:18 88° ESE 23:11:33 10° NNE
BREEZE-M DEB (TANK) 2.5 23:04:36 10° SW 23:06:37 30° SSE 23:10:20 10° ESE
ARGOS 4.1 23:01:53 10° S 23:07:00 44° W 23:12:09 10° NNW
Cosmos 1486 Rocket 4.1 23:04:16 10° NNW 23:09:40 83° ENE 23:14:09 15° SSE
Meteor 1-20 Rocket 4.4 23:05:27 10° S 23:10:54 56° E 23:16:17 10° NNE
CARTOSAT-1 3.7 23:07:18 12° S 23:11:17 71° WSW 23:15:37 10° NNW
CZ-4 R/B 3.8 23:06:35 10° NNE 23:11:20 88° ESE 23:16:00 10° SSW
Cosmos 1400 Rocket 4.5 23:12:58 14° SE 23:15:10 21° E 23:18:18 10° NE
Cosmos 1536 Rocket 4.2 23:11:23 10° NNW 23:15:47 54° W 23:20:09 10° S
H-2A R/B 2.5 23:11:19 10° S 23:16:35 63° WSW 23:21:51 10° NNW
CZ-4B R/B 3.8 23:16:55 10° E 23:18:22 13° ENE 23:19:48 10° NNE
Cosmos 2084 3.1 23:18:02 10° SW 23:21:53 89° N 23:25:47 10° NE
Meteor 1-25 Rocket 4.3 23:17:10 10° S 23:23:00 77° E 23:28:50 10° NNE
Cosmos 1833 Rocket 3.6 23:18:31 10° NW 23:23:46 41° WSW 23:28:37 12° S
CZ-4B R/B 3.9 23:18:53 10° NNE 23:23:52 63° WNW 23:28:41 10° SSW
Cosmos 1892 Rocket 4.4 23:25:23 10° N 23:29:30 39° ENE 23:32:31 17° SE
Cosmos 2278 Rocket 2.8 23:26:28 10° SW 23:32:07 62° NW 23:37:47 10° NNE
Okean 1 3.8 23:28:07 10° NNW 23:32:08 59° W 23:35:24 15° S
Cosmos 1844 Rocket 4.3 23:30:40 10° WSW 23:35:57 39° NW 23:41:13 10° NNE
Cosmos 1356 4.4 23:38:31 22° SE 23:40:10 33° E 23:43:24 10° NNE
Cosmos 2084 Rocket 3.2 23:38:54 10° NW 23:42:46 89° NE 23:45:35 19° SE
Cosmos 1633 3.8 23:41:47 20° SE 23:43:28 29° E 23:46:44 10° NNE
Cosmos 2082 Rocket 3.8 23:39:47 10° NW 23:44:24 26° WSW 23:49:00 10° SSW
Cosmos 2366 rocket 4.5 23:39:49 10° SSW 23:46:03 62° WNW 23:52:23 10° N
Meteor 2-4 Rocket 3.7 23:43:24 10° NNW 23:48:50 72° ENE 23:52:47 20° SSE
SL-8 R/B 4.2 23:48:41 10° WSW 23:53:07 37° S 23:56:20 17° SE
Cosmos 1025 Rocket 3.0 23:50:43 10° NNW 23:55:08 89° W 23:57:58 22° S
